Flag for Norway Weather past 2 weeks in Kleppe, Norway

Now
54 °F

Rain showers. Fog.


Feels Like: 51 °F
Forecast: 48 / 56 °F
Wind: 9 mph from North

Location: Stavanger / Sola

Current Time: Sep 21, 2014 at 6:11:05 AM

Latest Report: Sep 21, 2014 at 4:00 AM


Visibility: 3 mi

Pressure: 29.94 "Hg

Humidity: 91%

Dew point: 51 °F

Location of KleppeLocation

Historic Weather in Kleppe — Graph

°F

Kleppe temperature yesterday

Maximum temperature yesterday: 64 °F (at 11:00 AM)
Minimum temperature yesterday: 51 °F (at 5:00 AM)
Average temperature yesterday: 56 °F

Past Weeks' High & Low Weather Summary

 TemperatureHumidityPressure
High72 °F (Sep 16, 4:00 PM)99% (Sep 14, 8:00 AM)30.46 "Hg (Sep 14, 8:00 AM)
Low45 °F (Sep 18, 6:00 AM)31% (Sep 16, 5:00 PM)29.80 "Hg (Sep 7, 3:00 AM)
Average58 °F79%30.14 "Hg
* Reported Sep 6 4:00 AM — Sep 21 4:00 AM, Kleppe, Weather by CustomWeather, © 2014

Note: Actual official high and low records may vary slightly from our data, if they occured in-between our weather recording intervals... More about our weather records

Advertising

Kleppe weather history for previous 24 hours

 ConditionsComfort  
Time TempWeatherWind HumidityBarometerVisibility
4:00 AM
Sep 21
54 °FRain showers. Fog.9 mph91%29.94 "Hg2 mi
3:00 AM54 °FPassing clouds.8 mph88%29.94 "Hg11 mi
2:00 AM56 °FOvercast.6 mph84%29.94 "Hg28 mi
1:00 AM56 °FPassing clouds.6 mph81%29.94 "Hg25 mi
12:00 AM56 °FPassing clouds.5 mph79%29.95 "Hg31 mi
11:00 PM
Sep 20
57 °FOvercast.5 mph72%29.94 "Hg31 mi
10:00 PM57 °FOvercast.7 mph76%29.94 "Hg28 mi
9:00 PM57 °FOvercast.7 mph80%29.95 "Hg25 mi
8:00 PM57 °FOvercast.7 mph82%29.94 "Hg22 mi
7:00 PM56 °FRain. Overcast.9 mph90%29.93 "Hg6 mi
3:00 PM58 °FOvercast.5 mph92%29.93 "Hg6 mi
2:00 PM57 °FLight rain. Fog.5 mph90%29.95 "Hg4 mi
1:00 PM58 °FRain showers. Scattered clouds.3 mph85%29.95 "Hg6 mi
11:00 AM64 °FPassing clouds.6 mph57%29.95 "Hg17 mi
10:00 AM59 °FScattered clouds.1 mph60%29.96 "Hg22 mi
9:00 AM58 °FPassing clouds.2 mph61%29.96 "Hg22 mi
8:00 AM57 °FPassing clouds.2 mph60%29.96 "Hg25 mi
7:00 AM56 °FPassing clouds.2 mph63%29.97 "Hg22 mi
6:00 AM53 °FClear.2 mph73%29.98 "Hg19 mi
Weather by CustomWeather, © 2014

See weather overviewHow to use our weather pages